Regional Weather Roundup
Issued by NWS State College, PA

Home | Current Version | Previous Version | Graphics & Text | Print | Product List | Glossary On
Versions: 1 2 3 4 5 6 7 8 9 10 11 12 13 14 15 16 17 18 19 20 21 22 23 24 25 26 27 28 29 30 31 32 33 34 35 36 37 38 39 40 41 42 43 44 45 46 47 48 49 50
000
ASUS41 KCTP 181010
RWRCTP

REGIONAL WEATHER ROUNDUP
NATIONAL WEATHER SERVICE STATE COLLEGE PA
600 AM EDT FRI AUG 18 2017

Note: "fair" indicates few or no clouds below 12,000 feet with no
significant weather and/or obstructions to visibility.

* = STATION THAT DOES NOT REPORT PRECIPITATION /E.G. RAIN...SNOW...ETC/
    THUNDER OR FOG.

PAZ002>004-007>009-013>016-020>023-029>032-181100-
WESTERN PENNSYLVANIA

CITY           SKY/WX    TMP DP  RH WIND       PRES   REMARKS
ERIE           PTCLDY    72  69  90 S9        29.77S
MEADVILLE      CLOUDY    71  71 100 SW7       29.83S
FRANKLIN*      CLOUDY    70  66  88 SW5       29.85S
NEW CASTLE     CLOUDY    72  71  97 S3        29.84S
BEAVER COUNTY  NOT AVBL
BUTLER*        HVY RAIN  71  70  96 SW5       29.86S FOG
PITTSBURGH INT LGT RAIN  72  72 100 S5        29.85S
PITTSBURGH     CLOUDY    71  68  90 S7        29.85R
INDIANA*       CLOUDY    72  72 100 SW7       29.89F
LATROBE        CLOUDY    72  72 100 S5        29.87F
WASHINGTON CO* CLOUDY    72  68  88 SW3       29.86S
$$

PAZ004>006-010>012-017>019-024>028-033>037-041-042-045-046-049>053-181100-
CENTRAL PENNSYLVANIA

CITY           SKY/WX    TMP DP  RH WIND       PRES   REMARKS
BRADFORD       MOCLDY    70  70 100 VRB3      29.86S
DUBOIS         CLOUDY    70  67  90 SW7       29.86S FOG
CLEARFIELD     LGT RAIN  71  70  96 S5        29.87S
JOHNSTOWN      LGT RAIN  70  69  97 SW7       29.92S
ALTOONA        LGT RAIN  71  71 100 SW5       29.89S
STATE COLLEGE  LGT RAIN  72  70  94 S6        29.86S
WILLIAMSPORT   CLOUDY    77  74  90 E3        29.81S
SELINSGROVE    CLOUDY    74  74 100 CALM      29.84S
FT INDIANTOWN  CLOUDY    74  74 100 CALM      29.86R
CAPITAL CITY   CLOUDY    78  73  84 CALM      29.85R
HARRISBURG     CLOUDY    77  74  90 VRB5      29.84S
YORK           CLOUDY    77  75  93 SW3       29.85S
$$

PAZ038>040-043-044-047-048-054-055-060>062-067>071-181100-
EASTERN PENNSYLVANIA

CITY           SKY/WX    TMP DP  RH WIND       PRES   REMARKS
SCRANTON       CLOUDY    74  72  93 W3        29.87R
MOUNT POCONO   FOG       68  68 100 S6        29.93R VSB 1/2
ALLENTOWN      LGT RAIN  73  69  87 SE7       29.87F
QUAKERTOWN*    CLOUDY    73  68  83 N5        29.91R
READING        CLOUDY    76  74  93 S5        29.86R
LANCASTER      CLOUDY    74  74 100 SE5       29.87R
COATESVILLE    CLOUDY    72  72 100 CALM      29.90R
POTTSTOWN      CLOUDY    73  70  90 CALM      29.90R
BLUE BELL      CLOUDY    72  70  94 S7        29.90R
DOYLESTOWN     CLOUDY    73  69  87 S3        29.88S
WILLOW GROVE   NOT AVBL
NORTH PHILA    CLOUDY    76  70  82 VRB3      29.90R
PHILADELPHIA   CLOUDY    76  70  82 S7        29.88S
$$



USA.gov is the U.S. government's official web portal to all federal, state and local government web resources and services.